DW8188 Weather Reports


Display with metric or nautical units.
time (UTC)temp
F
wind
direction
speed
MPH
gust
MPH
rain 1hr
in
rain 24hr
in
rain mn
in
humidity
%
barometer
mb
20171212120815 43 23 0.0 0.0 0.00 0.00 0.08 84 1003.3
20171212113815 41 338 0.0 0.0 0.00 0.00 0.08 88 1003.4
20171212111815 39 315 0.0 0.0 0.00 0.00 0.08 88 1003.2
20171212105815 38 293 0.0 0.0 0.00 0.00 0.08 88 1003.4
20171212095815 40 158 0.0 1.0 0.00 0.00 0.08 88 1003.2
20171212094815 40 180 0.0 0.0 0.00 0.00 0.08 88 1003.1
20171212093815 39 113 0.0 0.0 0.00 0.00 0.08 88 1003.1
20171212092815 38 23 0.0 0.0 0.00 0.00 0.08 89 1002.8
20171212090815 38 135 0.0 0.0 0.00 0.00 0.08 89 1002.5
20171212085816 38 203 0.0 0.0 0.00 0.00 0.06 91 1002.4
20171212084815 37 315 0.0 0.0 0.00 0.00 0.06 91 1002.3
20171212083815 37 23 0.0 0.0 0.00 0.00 0.04 91 1002.0
20171212082815 36 180 0.0 0.0 0.00 0.00 0.04 92 1001.7
20171212072815 33 0 0.0 0.0 0.00 0.00 0.04 91 1000.6
20171212070815 32 0 0.0 0.0 0.00 0.00 0.04 92 1000.3
20171212064815 31 0 0.0 0.0 0.00 0.00 0.04 92 1000.0
20171212063815 32 0 0.0 0.0 0.00 0.00 0.04 91 999.7
20171212061816 33 0 0.0 0.0 0.00 0.00 0.04 92 999.2
20171212060815 33 0 0.0 0.0 0.00 0.00 0.04 92 998.7
20171212051815 33 0 0.0 0.0 0.00 0.00 0.04 92 997.6
20171212050815 33 0 0.0 0.0 0.00 0.00 0.04 92 997.5
20171212045815 33 0 0.0 0.0 0.00 0.00 0.04 92 997.2
20171212044815 33 0 0.0 0.0 0.00 0.00 0.04 92 997.2
20171212043815 32 0 0.0 0.0 0.00 0.00 0.04 92 997.0
20171212042815 32 0 0.0 0.0 0.00 0.00 0.04 92 996.9
20171212041815 32 0 0.0 0.0 0.00 0.00 0.04 92 996.6
20171212035815 33 0 0.0 0.0 0.00 0.00 0.04 92 996.5
20171212034815 32 0 0.0 0.0 0.00 0.00 0.04 92 996.1
20171212032815 33 0 0.0 0.0 0.00 0.00 0.04 92 996.0
20171212031815 33 0 0.0 0.0 0.00 0.00 0.04 92 996.0
20171212024815 33 0 0.0 0.0 0.00 0.00 0.04 92 995.5
20171212022815 33 0 0.0 0.0 0.00 0.00 0.02 92 995.5
20171212021815 33 0 0.0 0.0 0.00 0.00 0.02 92 995.4
20171212015815 33 0 0.0 0.0 0.00 0.00 0.02 92 995.1
20171212014815 33 0 0.0 0.0 0.00 0.00 0.02 92 995.0
20171212012815 32 23 0.0 0.0 0.00 0.00 0.02 92 994.4
20171212011815 33 23 0.0 0.0 0.00 0.00 0.02 92 994.6
20171212010815 33 23 0.0 0.0 0.00 0.00 0.02 92 994.1
20171212005815 33 45 0.0 0.0 0.00 0.00 0.02 92 993.8
20171212002815 33 203 0.0 0.0 0.00 0.00 0.02 92 993.5
20171212001815 33 180 0.0 0.0 0.00 0.00 0.02 92 993.3
20171212000815 33 225 0.0 0.0 0.00 0.00 0.02 92 992.9
20171211233815 32 158 0.0 0.0 0.00 0.00 0.02 92 992.2
20171211231815 33 158 0.0 0.0 0.00 0.00 0.00 92 992.0
20171211230815 33 158 0.0 0.0 0.00 0.00 0.00 92 991.6
20171211224815 33 180 0.0 0.0 0.00 0.00 0.08 92 991.5
20171211223815 33 180 1.0 1.0 0.00 0.00 0.08 92 991.4
20171211221815 32 158 0.0 0.0 0.00 0.00 0.08 92 991.1
20171211220815 32 158 0.0 0.0 0.00 0.00 0.08 92 990.5
20171211215815 32 158 0.0 0.0 0.00 0.00 0.08 92 990.3
20171211214815 32 158 0.0 0.0 0.00 0.00 0.08 92 989.8
20171211211815 32 158 0.0 0.0 0.00 0.00 0.06 92 989.2
20171211210815 32 158 0.0 0.0 0.00 0.00 0.06 92 989.3
20171211205815 32 158 0.0 0.0 0.00 0.00 0.06 92 989.2
20171211204816 32 158 0.0 0.0 0.00 0.00 0.06 92 989.6
20171211203815 32 158 0.0 0.0 0.00 0.00 0.06 92 989.2
20171211202815 32 158 0.0 0.0 0.00 0.00 0.06 91 989.2
20171211191848 32 158 0.0 0.0 0.00 0.00 0.06 91 989.1
20171211184849 32 158 0.0 0.0 0.00 0.00 0.06 91 989.0
20171211183848 32 158 0.0 0.0 0.00 0.00 0.06 91 989.2
20171211175849 32 158 0.0 0.0 0.00 0.00 0.06 91 989.3
20171211173848 32 158 0.0 0.0 0.00 0.00 0.06 91 989.4
20171211165848 32 158 0.0 0.0 0.00 0.00 0.06 91 989.7
20171211163848 32 158 0.0 0.0 0.00 0.00 0.06 91 989.9
20171211162848 32 158 0.0 0.0 0.00 0.00 0.06 90 990.0
20171211161849 32 158 0.0 0.0 0.00 0.00 0.06 90 990.0
20171211154848 32 158 0.0 0.0 0.00 0.00 0.06 90 990.0
20171211152848 32 158 0.0 0.0 0.00 0.00 0.06 90 990.1
20171211151848 32 158 0.0 0.0 0.00 0.00 0.06 90 990.4
20171211145848 32 158 0.0 0.0 0.00 0.00 0.06 90 990.5
20171211143848 32 158 0.0 0.0 0.00 0.00 0.06 90 990.8
20171211133848 32 180 0.0 0.0 0.00 0.00 0.04 90 991.1
20171211131848 32 180 0.0 0.0 0.00 0.00 0.04 90 991.4
20171211124848 32 180 0.0 2.0 0.00 0.00 0.04 89 991.5
20171211123848 33 135 0.0 0.0 0.00 0.00 0.04 89 991.4
20171211122848 33 158 0.0 0.0 0.00 0.00 0.04 89 991.5
20171211121848 32 180 0.0 0.0 0.00 0.00 0.04 90 991.5